Greenwood, SC

3:14 AM EDT on September 26, 2016 (GMT -0400)
Greenwood County

Weather History for KGRD - January, 2012

Change the Weather History Date:

Thursday, January 19, 2012

  Actual Average (KAND) Record (KAND)
Temperature  
Mean Temperature 37 °F -  
Max Temperature 46 °F 51 °F 69 °F (1975)
Min Temperature 28 °F 32 °F 11 °F (1977)
Degree Days  
Heating Degree Days 28    
Moisture  
Dew Point 27 °F    
Average Humidity 70    
Maximum Humidity 89    
Minimum Humidity 48    
Precipitation  
Precipitation 0.00 in - - ()
Sea Level Pressure  
Sea Level Pressure 30.15 in    
Wind  
Wind Speed 4 mph (NE)    
Max Wind Speed 7 mph    
Max Gust Speed -    
Visibility 10 miles    
Events      
Averages and records for this station are not official NWS values.
T = Trace of Precipitation, MM = Missing Value Source: NWS Daily Summary

Daily Weather History Graph

Daily Weather History Graph

Search for Another Location

Airport or City:

Trip Planner

Search our weather history database for the weather conditions in past years. The results will help you decide how hot, cold, wet, or windy it might be!

Date:

Astronomy

Jan. 19, 2012 Rise Set
Actual Time 7:33 AM EST 5:45 PM EST
Civil Twilight 7:06 AM EST 6:12 PM EST
Nautical Twilight 6:35 AM EST 6:43 PM EST
Astronomical Twilight 6:05 AM EST 7:13 PM EST
Moon 4:05 AM EST (1/19) 2:19 PM EST (1/19)
Length of Visible Light 11h 06m
Length of Day
10h 12m
Waning Crescent, 16% of the Moon is Illuminated
Jan 19
Waning Crescent
Jan 23
New
Jan 30
First Quarter
Feb 7
Full
Feb 14
Last Quarter

Hourly Weather History & Observations

Time (EST) Temp. Windchill Dew Point Humidity Pressure Visibility Wind Dir Wind Speed Gust Speed Precip Events Conditions
12:56 AM 30.0 °F 24.1 °F 27.0 °F 88% 30.09 in 10.0 mi North 5.8 mph - N/A   Clear
1:56 AM 34.0 °F 28.0 °F 27.0 °F 75% 30.09 in 10.0 mi NNE 6.9 mph - N/A   Clear
2:56 AM 35.1 °F 29.3 °F 26.1 °F 70% 30.11 in 10.0 mi NNE 6.9 mph - N/A   Clear
3:56 AM 34.0 °F 28.8 °F 26.1 °F 73% 30.12 in 10.0 mi NE 5.8 mph - N/A   Clear
4:56 AM 33.1 °F 28.7 °F 25.0 °F 72% 30.13 in 10.0 mi NE 4.6 mph - N/A   Clear
5:56 AM 30.0 °F 26.5 °F 24.1 °F 79% 30.16 in 10.0 mi NNE 3.5 mph - N/A   Clear
6:56 AM 28.9 °F 22.8 °F 24.1 °F 82% 30.19 in 10.0 mi North 5.8 mph - N/A   Clear
7:56 AM 30.0 °F 26.5 °F 24.1 °F 79% 30.21 in 10.0 mi North 3.5 mph - N/A   Clear
8:56 AM 34.0 °F 29.8 °F 25.0 °F 70% 30.24 in 10.0 mi NNE 4.6 mph - N/A   Clear
9:56 AM 37.0 °F 32.4 °F 24.1 °F 59% 30.24 in 10.0 mi East 5.8 mph - N/A   Clear
10:56 AM 39.0 °F 34.8 °F 26.1 °F 60% 30.20 in 10.0 mi SE 5.8 mph - N/A   Clear
11:56 AM 43.0 °F 41.3 °F 27.0 °F 53% 30.19 in 10.0 mi Variable 3.5 mph - N/A   Clear
1:56 PM 46.0 °F 43.1 °F 28.0 °F 50% 30.15 in 10.0 mi SW 5.8 mph - N/A   Clear
2:56 PM 46.0 °F - 28.9 °F 51% 30.13 in 10.0 mi Calm Calm - N/A   Clear
3:56 PM 46.9 °F - 28.0 °F 48% 30.12 in 10.0 mi Calm Calm - N/A   Clear
4:56 PM 46.9 °F - 30.0 °F 52% 30.12 in 10.0 mi SSE 3.5 mph - N/A   Clear
5:56 PM 41.0 °F - 32.0 °F 70% 30.13 in 10.0 mi Calm Calm - N/A   Clear
7:56 PM 35.1 °F - 30.0 °F 82% 30.13 in 10.0 mi Calm Calm - N/A   Clear
8:56 PM 33.1 °F - 30.0 °F 89% 30.12 in 10.0 mi Calm Calm - N/A   Clear
10:56 PM 30.9 °F - 28.0 °F 89% 30.13 in 10.0 mi Calm Calm - N/A   Clear
11:56 PM 33.1 °F - 30.0 °F 89% 30.13 in 10.0 mi Calm Calm - N/A   Overcast